Regional Weather Roundup
Issued by NWS

Home | Current Version | Previous Version | Text Only | Print | Product List | Glossary Off
Versions: 1 2 3 4 5 6 7 8 9 10 11 12 13 14 15 16 17 18 19 20 21 22 23 24 25 26 27 28 29 30 31 32 33 34 35 36 37 38 39 40 41 42 43 44 45 46 47 48 49 50

000
ASUS44 KMEG 090200
RWRTN
TENNESSEE HOURLY STATE WEATHER ROUNDUP
NATIONAL WEATHER SERVICE MEMPHIS TN
800 PM CST MON FEB 08 2016

TNZ002-004-019-021-049-052-054-088>092-090300-
WEST TENNESSEE

CITY           SKY/WX    TMP DP  RH WIND       PRES   REMARKS
MEMPHIS INTL   CLOUDY    38  20  48 NW13      30.01S WCI  30
NWS MEMPHIS      N/A     37 N/A N/A MISG        N/A
JACKSON        CLOUDY    35  20  54 NW15G29   29.96S WCI  25
DYERSBURG      CLOUDY    34  19  55 W13G20    29.99S WCI  25
UNION CITY     CLOUDY    30  18  59 NW10      29.94F WCI  21
PARIS          CLOUDY    28  16  59 W15       29.93S WCI  17
$$

TNZ008-025-027-028-033-062-065-066-090300-
NORTH MIDDLE TENNESSEE

CITY           SKY/WX    TMP DP  RH WIND       PRES   REMARKS
NASHVILLE      LGT SNOW  31  25  78 NW7       29.90S WCI  24
CLARKSVILLE    LGT SNOW  29  23  78 NW15G24   29.91R WCI  18
COOKEVILLE     CLOUDY    28  27  93 NW7       29.83F WCI  21
CROSSVILLE     LGT SNOW  27  22  81 W14       29.79F WCI  16
$$

TNZ061-075-076-078-094-096-097-090300-
SOUTH MIDDLE TENNESSEE

CITY           SKY/WX    TMP DP  RH WIND       PRES   REMARKS
TULLAHOMA      MOCLDY    30  21  69 W10       29.87S WCI  21
WINCHESTER     CLOUDY    34  25  69 NW7       29.87F WCI  28
MCMINNVILLE    CLOUDY    30  28  93 W8        29.86R WCI  23
COLUMBIA       MOCLDY    30  30 100 W6        29.90R WCI  24
SHELBYVILLE    CLOUDY    34  28  80 NW12      29.90R WCI  25
$$

TNZ017-018-042-046-047-090300-
NORTHEAST TENNESSEE

CITY           SKY/WX    TMP DP  RH WIND       PRES   REMARKS
TRI CITIES     CLOUDY    33  31  92 SW6       29.71F WCI  28
$$

TNZ012-013-036-069-073-074-090300-
CENTRAL EAST TENNESSEE

CITY           SKY/WX    TMP DP  RH WIND       PRES   REMARKS
KNOXVILLE      FLURRIES  36  26  67 W20G37    29.78R WCI  25
OAK RIDGE      CLOUDY    33  26  75 W8G18     29.80R WCI  26
GATLINBURG     CLOUDY    37  19  48 W9        29.74S WCI  31
$$

TNZ083-085-099-090300-
SOUTHEAST TENNESSEE

CITY           SKY/WX    TMP DP  RH WIND       PRES   REMARKS
CHATTANOOGA    CLOUDY    36  22  56 NW9       29.87S WCI  29
$$

SKY/WX REPORTED AS FAIR MEANS FEW OR NO CLOUDS BELOW
12 THOUSAND FEET.




USA.gov is the U.S. government's official web portal to all federal, state and local government web resources and services.